DELTA 1 DEB, 720

Orbit data source: Space-Track

DELTA 1 DEB, 720 is space debris in LEO originally from a launch on Sat, 21 Dec 1963 UTC launched from the Air Force Western Test Range (AFWTR). Debris objects in space refer to the collection of defunct objects orbiting the Earth. Examples of debris include non-operational satellites, rocket bodies, and fragments generated from explosions, collisions, or faulty payload assembly.

Loading next visibility...
Identifier
720, 1963-054C
Orbit
LEO
Last TLE update
20 hours ago
Origin
Manufacturer
Unknown
Mission
Spacecraft
Bus & Motor
Unknown
Mass
~1 kg wet, ~1 kg dry
Launch date (UTC)
1963-12-21 (61 years ago)
Launch vehicle
Unknown
Launch site
Air Force Western Test Range (AFWTR)
Object type
Payload
Rocket body
Debris
Shape & HBR
Box + 1 Cable, 3.5 m
Radar Cross Section
6.125 m², Small (<0.1 m²)

Expand to show TLE details & history

TLE from 20 hours ago
0 DELTA 1 DEB
1 00720U 63054C   25128.39436602  .00000705  00000-0  21081-3 0  9995
2 00720  58.4702 136.9301 0101316 269.4467  89.4951 14.50018727222760
Epoch: 2025-05-08T09:27Z
Definitive object data (Epoch: 2025-05-08T09:27:53.224Z)
Latitude
-0.00005°
Longitude
128.49281°
Altitude
727.083 km
Speed
7.492 km/s
True Right ascension
09h 07m 43s
True Declination
0° 00' 00"
Sunlit
Object was in daylight at TLE epoch
Visualization TLE readout
Latitude
42.91365°
Longitude
160.06624°
Altitude
787.069 km
Speed
7.435 km/s
Apparent Right ascension
06h 52m 10s
Apparent Declination
13° 34' 32"
Sunlit
Object is in daylight
Visualization observer readout
Local Sidereal Time
13:42:40
Azimuth
288.444° WNW
Elevation
-0.707°
Doppler factor
1
Orbital elements
Apogee altitude
797.001 km
Perigee altitude
653.068 km
Semi-major axis
7,103.172 km
Eccentricity
0.0101316
Inclination
58.4702°
RAAN
136.9301°
Arg. of periapsis
269.4467°
True anomaly
90.6561°
Mean anomaly
89.4951°
Eccentric anomaly
90.0756°
Mean motion
3.62547 °/min
BSTAR
0.00021081
Orbital period
99.3 mins
Loading maneuver chart data...
Loading SW <> Apogee altitude chart data...
Loading historical data...
Loading historical data...
Loading historical data...
Loading historical data...
Loading historical data...
Loading historical data...
Loading historical data...
Other satellites on launch #54 in the year 1963 (1963-12-21 UTC)

DELTA 1 DEB Visibility forecast

Observer location: undefined°, undefined°

Span
Click to sort rows by Start time (UTC) header in descending order
Start Az.
Max El. time (UTC)
Max El. Az.
Max El.
End time (UTC)
End Az.
4 mins2025-05-09 05:38:58.788Z325.656° NNW2025-05-09 05:40:58.788Z348.532° N12.619°2025-05-09 05:42:58.788Z10.359° NNE
7 mins2025-05-09 09:07:58.788Z349.782° N2025-05-09 09:10:58.788Z34.443° NE23.532°2025-05-09 09:14:58.788Z86.184° E
9 mins2025-05-09 10:49:58.788Z313.351° NW2025-05-09 10:53:58.788Z263.144° W42.93°2025-05-09 10:58:58.788Z149.684° SSE
7 mins2025-05-10 01:18:58.788Z162.862° S2025-05-10 01:21:58.788Z119.961° SE22.638°2025-05-10 01:25:58.788Z68.158° E
9 mins2025-05-10 03:00:58.788Z242.993° WSW2025-05-10 03:04:58.788Z329.819° NNW39.343°2025-05-10 03:09:58.788Z34.412° NE
5 mins2025-05-10 04:46:58.788Z313.954° NW2025-05-10 04:48:58.788Z339.515° N15.97°2025-05-10 04:51:58.788Z14.038° NNE
|